Location: Monroe
(41.9160°N, 83.3980°W)
Time: 09:47:58
(UTC-04:00)

ISS - Visible Passes

Search period start: 01 October 2016 00:00
Search period end: 11 October 2016 00:00
Orbit: 400 x 410 km, 51.6° (Epoch: 01 October)

Date Brightness Start Highest point End Pass type
(mag) Time Alt. Az. Time Alt. Az. Time Alt. Az.
01 Oct -3.0 19:41:08 10° SW 19:44:17 50° SE 19:47:27 10° ENE visible
01 Oct -1.4 21:18:05 10° W 21:20:45 26° NNW 21:20:45 26° NNW visible
02 Oct -2.1 20:25:34 10° W 20:28:39 39° NNW 20:30:52 16° NE visible
03 Oct -3.0 19:33:13 10° WSW 19:36:27 68° NNW 19:39:42 10° NE visible
03 Oct -1.0 21:11:00 10° WNW 21:13:24 19° NNW 21:13:34 19° N visible
04 Oct -1.3 20:18:19 10° WNW 20:21:02 24° NNW 20:23:30 11° NE visible
05 Oct -0.8 21:03:52 10° NW 21:05:55 15° N 21:06:02 15° N visible
06 Oct -1.0 20:11:12 10° NW 20:13:28 17° NNW 20:15:46 10° NNE visible
07 Oct -0.8 20:56:26 10° NW 20:58:18 15° N 20:58:18 15° N visible
08 Oct -0.9 20:03:56 10° NW 20:05:55 15° N 20:07:55 10° NE visible
09 Oct -1.0 20:48:36 10° NNW 20:50:29 17° N 20:50:29 17° N visible
10 Oct -1.0 19:56:20 10° NNW 19:58:21 15° N 20:00:14 11° NE visible
10 Oct -0.1 21:32:35 10° NW 21:32:53 12° NW 21:32:53 12° NW visible
